Location: Saratoga Springs
(43.0831°N, 73.7850°W)
Time: 16:38:58
(UTC-04:00)

Tiros 1 despin weight - Pass Details

Date: 21 April 2024
Orbit: 578 x 620 km, 48.2° (Epoch: 29 May)

Event Time Altitude Azimuth Distance (km) Brightness Sun altitude
Rises 17:32:39 0° 293° (WNW) 2,863 ? 23.1°
Reaches altitude 10° 17:34:57 10° 296° (WNW) 1,964 ? 22.7°
Maximum altitude 17:39:27 67° 20° (NNE) 667 ? 21.9°
Drops below altitude 10° 17:44:00 10° 103° (ESE) 1,979 ? 21.0°
Sets 17:46:19 0° 106° (ESE) 2,886 ? 20.6°
